Regional Weather Roundup
Issued by NWS

Home | Current Version | Previous Version | Graphics & Text | Print | Product List | Glossary On
Versions: 1 2 3 4 5 6 7 8 9 10 11 12 13 14 15 16 17 18 19 20 21 22 23 24 25 26 27 28 29 30 31 32 33 34 35 36 37 38 39 40 41 42 43 44 45 46 47 48 49 50
000
ASUS43 KBIS 272010
RWRND

NORTH DAKOTA REGIONAL WEATHER ROUNDUP
NATIONAL WEATHER SERVICE BISMARCK ND
300 PM CDT SUN MAY 27 2018

NOTE: "FAIR" INDICATES FEW OR NO CLOUDS BELOW 12,000 FEET WITH NO
SIGNIFICANT WEATHER AND/OR OBSTRUCTIONS TO VISIBILITY.


NDZ001>003-009>011-017-272100-
NORTHWEST NORTH DAKOTA

CITY           SKY/WX    TMP DP  RH WIND       PRES   REMARKS
WILLISTON      MOSUNNY   79  60  52 N8        29.93F
MINOT          CLOUDY    83  57  41 NW9G16    29.86S
MINOT AFB      MOSUNNY   81  58  44 NW9G17    29.85S
$$

NDZ018>021-031>035-040>046-272100-
SOUTHWEST NORTH DAKOTA

CITY           SKY/WX    TMP DP  RH WIND       PRES   REMARKS
BISMARCK       PTSUNNY   80  59  48 NE12G17   29.84S
DICKINSON      MOSUNNY   77  55  46 N18G25    29.89R
GARRISON       NOT AVBL
HETTINGER ARPT SUNNY     81  57  43 N13G22    29.91R
$$

NDZ004>008-012>016-024-026-027-054-272100-
NORTHEAST NORTH DAKOTA

CITY           SKY/WX    TMP DP  RH WIND       PRES   REMARKS
GRAND FORKS    PTSUNNY   80  62  54 N9        29.82S
GRND FRKS AFB  FAIR      79  61  53 N8        29.84R
DEVILS LAKE    FAIR      78  58  49 E8        29.84F
$$

NDZ022-023-025-028>030-036>039-047>053-272100-
SOUTHEAST NORTH DAKOTA

CITY           SKY/WX    TMP DP  RH WIND       PRES   REMARKS
FARGO          FAIR      78  63  59 N13G18    29.78R
JAMESTOWN      MOSUNNY   76  64  66 NE12      29.82S
$$




USA.gov is the U.S. government's official web portal to all federal, state and local government web resources and services.